contact:dominique.lefevre@mio.osupytheas.fr, maurice.libes@osupytheas.fr, didier.mallarino@osupytheas.fr
Project:EMSO http://www.emso-fr.org/EMSO-France
Depth: 2436.0 m
Title:EMSO Ligure Ouest : Data MII capteur AQUADOPP
Date,Latitude,Longitude,X_East,Y_North,Z_Up,Amplitude_X,Amplitude_Y,Amplitude_Z,Batterie,SoundSpeed,Heading,Pitch,Roll,Pressure,TIS,Speed,Direction
, degrees North, degrees East, m.s-1, m.s-1,m.s-1, 1, 1, 1, Volt, m.s-1, degree, degree, degree, dbar, degree_C, m.s-1, degree
2023-10-31T00:04:03,42.805,6.029,-0.004,0.012,-0.056,102.0,105.0,102.0,13.4,1505.2,351.3,-0.8,1.8,2471.643,13.29,0.012,341.6
2023-10-31T00:07:03,42.805,6.029,0.001,0.042,0.006,104.0,104.0,103.0,13.4,1505.2,358.0,-0.7,1.8,2471.623,13.29,0.042,1.4
2023-10-31T00:10:03,42.805,6.029,0.002,0.004,-0.039,105.0,103.0,102.0,13.4,1505.2,359.0,-0.8,1.8,2471.59,13.29,0.004,26.6
2023-10-31T00:13:03,42.805,6.029,-0.008,0.024,-0.037,104.0,103.0,102.0,13.4,1505.2,344.7,-0.7,1.8,2471.561,13.29,0.025,341.6
2023-10-31T00:16:03,42.805,6.029,-0.021,0.031,-0.023,105.0,103.0,102.0,13.3,1505.2,340.9,-0.8,1.8,2471.599,13.29,0.037,325.9
2023-10-31T00:19:03,42.805,6.029,-0.027,0.009,-0.025,104.0,103.0,102.0,13.4,1505.2,351.0,-0.8,1.8,2471.546,13.29,0.028,288.4
2023-10-31T00:22:03,42.805,6.029,-0.008,0.006,-0.02,103.0,103.0,103.0,13.4,1505.2,340.4,-0.7,1.9,2471.568,13.29,0.01,306.9
2023-10-31T00:25:03,42.805,6.029,-0.007,0.035,-0.003,105.0,104.0,102.0,13.3,1505.2,346.3,-0.8,1.8,2471.537,13.29,0.035,348.7
2023-10-31T00:28:03,42.805,6.029,-0.007,0.026,-0.034,105.0,103.0,102.0,13.3,1505.2,0.0,-0.8,1.8,2471.544,13.29,0.026,344.9
2023-10-31T00:31:03,42.805,6.029,0.006,0.037,-0.014,104.0,103.0,102.0,13.4,1505.2,350.3,-0.8,1.8,2471.558,13.29,0.037,9.2
2023-10-31T00:34:03,42.805,6.029,-0.029,0.01,-0.058,106.0,104.0,102.0,13.3,1505.2,347.6,-0.8,1.8,2471.526,13.29,0.03,289.0
2023-10-31T00:37:03,42.805,6.029,-0.024,0.005,-0.038,103.0,104.0,102.0,13.3,1505.2,335.6,-0.8,1.8,2471.51,13.29,0.024,281.8
2023-10-31T00:40:03,42.805,6.029,-0.016,0.024,-0.021,103.0,103.0,103.0,13.3,1505.2,357.0,-0.8,1.8,2471.544,13.29,0.028,326.3
2023-10-31T00:43:03,42.805,6.029,-0.02,0.029,-0.001,104.0,104.0,102.0,13.4,1505.2,340.7,-0.8,1.8,2471.539,13.29,0.035,325.4
2023-10-31T00:46:03,42.805,6.029,-0.015,0.021,-0.029,104.0,102.0,103.0,13.4,1505.2,345.9,-0.7,1.8,2471.531,13.29,0.025,324.5
2023-10-31T00:49:03,42.805,6.029,0.003,0.02,-0.018,105.0,103.0,102.0,13.4,1505.2,338.7,-0.7,1.8,2471.529,13.29,0.02,8.5
2023-10-31T00:52:03,42.805,6.029,-0.003,0.021,-0.047,105.0,104.0,101.0,13.4,1505.2,357.9,-0.8,1.8,2471.537,13.29,0.021,351.9
2023-10-31T00:55:03,42.805,6.029,-0.018,0.03,-0.03,104.0,104.0,102.0,13.4,1505.2,344.2,-0.8,1.8,2471.539,13.29,0.034,329.0
2023-10-31T00:58:03,42.805,6.029,-0.022,0.001,-0.025,103.0,104.0,102.0,13.3,1505.2,355.4,-0.7,1.8,2471.53,13.29,0.022,272.6
2023-10-31T01:04:03,42.805,6.029,-0.023,0.037,-0.001,104.0,105.0,103.0,13.4,1505.2,350.0,-0.8,1.8,2471.616,13.29,0.043,328.1
2023-10-31T01:07:03,42.805,6.029,-0.016,0.012,-0.021,104.0,104.0,102.0,13.4,1505.2,338.7,-0.7,1.8,2471.588,13.29,0.02,306.9
2023-10-31T01:10:03,42.805,6.029,-0.02,0.032,-0.03,104.0,103.0,103.0,13.4,1505.2,345.7,-0.8,1.8,2471.568,13.29,0.037,328.0
2023-10-31T01:13:03,42.805,6.029,-0.004,0.008,-0.043,104.0,103.0,102.0,13.4,1505.2,339.3,-0.8,1.8,2471.57,13.29,0.008,333.4
2023-10-31T01:16:03,42.805,6.029,-0.019,0.028,-0.03,104.0,103.0,102.0,13.3,1505.2,347.4,-0.8,1.8,2471.561,13.29,0.033,325.8
2023-10-31T01:19:03,42.805,6.029,0.004,0.013,-0.046,105.0,103.0,103.0,13.4,1505.2,334.2,-0.7,1.8,2471.542,13.29,0.013,17.1
2023-10-31T01:22:03,42.805,6.029,-0.029,0.015,-0.016,104.0,103.0,102.0,13.4,1505.2,340.9,-0.8,1.8,2471.554,13.29,0.032,297.4
2023-10-31T01:25:03,42.805,6.029,-0.017,0.032,-0.014,103.0,104.0,102.0,13.4,1505.2,352.1,-0.8,1.8,2471.562,13.29,0.036,332.0
2023-10-31T01:28:03,42.805,6.029,-0.025,0.019,-0.021,104.0,103.0,102.0,13.4,1505.2,340.4,-0.8,1.8,2471.56,13.29,0.031,307.2
2023-10-31T01:31:03,42.805,6.029,-0.027,0.02,-0.015,104.0,103.0,102.0,13.4,1505.2,334.2,-0.7,1.9,2471.549,13.29,0.033,306.5
2023-10-31T01:34:03,42.805,6.029,-0.01,0.031,-0.005,106.0,104.0,101.0,13.3,1505.2,349.1,-0.8,1.8,2471.544,13.29,0.032,342.1
2023-10-31T01:37:03,42.805,6.029,-0.011,0.031,-0.023,105.0,104.0,102.0,13.3,1505.2,340.7,-0.8,1.8,2471.514,13.29,0.032,340.5
2023-10-31T01:40:03,42.805,6.029,-0.013,0.02,-0.035,104.0,103.0,103.0,13.3,1505.2,352.6,-0.7,1.8,2471.523,13.29,0.023,327.0
2023-10-31T01:43:03,42.805,6.029,-0.039,0.012,-0.007,104.0,103.0,102.0,13.3,1505.2,351.0,-0.8,1.8,2471.547,13.29,0.04,287.1
2023-10-31T01:46:03,42.805,6.029,-0.002,0.037,-0.01,103.0,104.0,102.0,13.4,1505.2,350.7,-0.8,1.8,2471.503,13.29,0.037,356.9
2023-10-31T01:49:03,42.805,6.029,-0.006,0.012,-0.048,104.0,104.0,102.0,13.3,1505.2,358.1,-0.8,1.8,2471.52,13.29,0.013,333.4
2023-10-31T01:52:03,42.805,6.029,-0.02,0.022,-0.007,104.0,104.0,102.0,13.4,1505.2,341.5,-0.8,1.8,2471.504,13.29,0.029,317.7
2023-10-31T01:55:03,42.805,6.029,-0.032,0.025,-0.035,103.0,102.0,103.0,13.4,1505.2,340.6,-0.7,1.8,2471.535,13.29,0.04,308.0
2023-10-31T01:58:03,42.805,6.029,-0.043,0.032,-0.02,105.0,103.0,102.0,13.4,1505.2,349.8,-0.8,1.8,2471.509,13.29,0.053,306.7
2023-10-31T02:04:03,42.805,6.029,-0.009,0.006,0.003,104.0,103.0,102.0,13.3,1505.2,348.1,-0.8,1.8,2471.595,13.29,0.01,303.7
2023-10-31T02:07:03,42.805,6.029,-0.021,0.02,-0.017,104.0,104.0,102.0,13.4,1505.2,333.8,-0.7,1.8,2471.519,13.29,0.028,313.6
2023-10-31T02:10:03,42.805,6.029,-0.003,0.009,-0.032,103.0,103.0,103.0,13.3,1505.2,353.8,-0.7,1.8,2471.543,13.29,0.009,341.6
2023-10-31T02:13:03,42.805,6.029,-0.028,0.031,-0.056,104.0,104.0,101.0,13.4,1505.2,349.0,-0.8,1.8,2471.541,13.29,0.041,317.9
2023-10-31T02:16:03,42.805,6.029,-0.017,0.012,-0.001,104.0,104.0,102.0,13.3,1505.2,344.9,-0.8,1.8,2471.533,13.29,0.02,305.2
2023-10-31T02:19:03,42.805,6.029,-0.008,0.02,0.006,105.0,106.0,102.0,13.3,1505.2,0.0,-0.8,1.8,2471.519,13.29,0.021,338.2
2023-10-31T02:22:03,42.805,6.029,-0.022,0.003,-0.019,104.0,104.0,103.0,13.4,1505.2,341.8,-0.8,1.8,2471.484,13.29,0.022,277.8
2023-10-31T02:25:03,42.805,6.029,-0.004,0.03,0.0,104.0,104.0,102.0,13.4,1505.2,336.0,-0.8,1.8,2471.525,13.29,0.03,352.4
2023-10-31T02:28:03,42.805,6.029,-0.01,0.017,-0.029,104.0,104.0,102.0,13.4,1505.2,357.9,-0.7,1.8,2471.571,13.29,0.019,329.5
2023-10-31T02:31:03,42.805,6.029,-0.009,0.027,-0.013,103.0,104.0,102.0,13.3,1505.2,341.2,-0.8,1.8,2471.501,13.29,0.028,341.6
2023-10-31T02:34:03,42.805,6.029,-0.018,0.015,-0.015,105.0,103.0,102.0,13.3,1505.2,348.6,-0.8,1.8,2471.5,13.29,0.023,309.8
2023-10-31T02:37:03,42.805,6.029,-0.005,0.037,-0.018,104.0,104.0,101.0,13.4,1505.2,338.2,-0.8,1.8,2471.497,13.29,0.037,352.3
2023-10-31T02:40:03,42.805,6.029,-0.006,0.026,-0.033,106.0,104.0,102.0,13.3,1505.2,352.0,-0.8,1.8,2471.498,13.29,0.026,347.0
2023-10-31T02:43:03,42.805,6.029,-0.035,0.022,-0.058,105.0,104.0,102.0,13.3,1505.2,339.7,-0.8,1.8,2471.473,13.29,0.041,302.2
2023-10-31T02:46:03,42.805,6.029,-0.013,0.027,-0.021,104.0,103.0,103.0,13.3,1505.2,345.7,-0.7,1.8,2471.51,13.29,0.029,334.3
2023-10-31T02:49:03,42.805,6.029,-0.004,0.027,0.008,104.0,104.0,102.0,13.4,1505.2,337.0,-0.8,1.8,2471.455,13.29,0.027,351.6
2023-10-31T02:52:03,42.805,6.029,-0.01,0.025,0.005,104.0,104.0,103.0,13.4,1505.2,345.5,-0.8,1.8,2471.466,13.29,0.026,338.2
2023-10-31T02:55:03,42.805,6.029,-0.009,0.019,-0.014,105.0,104.0,102.0,13.4,1505.2,336.3,-0.8,1.8,2471.48,13.29,0.021,334.7
2023-10-31T02:58:03,42.805,6.029,-0.006,0.019,-0.019,104.0,104.0,102.0,13.4,1505.2,350.7,-0.8,1.8,2471.496,13.29,0.019,342.5
2023-10-31T03:04:03,42.805,6.029,-0.017,0.036,-0.042,104.0,104.0,102.0,13.3,1505.2,333.4,-0.8,1.8,2471.523,13.29,0.039,334.7
2023-10-31T03:07:03,42.805,6.029,-0.008,0.022,0.001,105.0,104.0,102.0,13.4,1505.2,337.3,-0.8,1.8,2471.546,13.29,0.023,340.0
2023-10-31T03:10:03,42.805,6.029,-0.027,0.036,-0.013,103.0,105.0,102.0,13.3,1505.2,343.4,-0.8,1.8,2471.505,13.29,0.045,323.1
2023-10-31T03:13:03,42.805,6.029,-0.006,0.014,-0.011,103.0,104.0,102.0,13.4,1505.2,340.0,-0.8,1.8,2471.542,13.29,0.015,336.8
2023-10-31T03:16:03,42.805,6.029,-0.029,0.034,-0.017,105.0,104.0,103.0,13.4,1505.2,336.0,-0.7,1.8,2471.551,13.29,0.044,319.5
2023-10-31T03:19:03,42.805,6.029,-0.027,0.056,0.005,104.0,105.0,101.0,13.3,1505.2,358.0,-0.8,1.8,2471.5,13.29,0.062,334.3
2023-10-31T03:22:03,42.805,6.029,0.001,0.001,-0.031,103.0,105.0,103.0,13.4,1505.2,352.4,-0.7,1.8,2471.527,13.29,0.001,45.0
2023-10-31T03:25:03,42.805,6.029,0.003,0.022,-0.022,103.0,103.0,103.0,13.4,1505.2,357.1,-0.8,1.8,2471.498,13.29,0.022,7.8
2023-10-31T03:28:03,42.805,6.029,-0.022,0.027,-0.004,104.0,104.0,102.0,13.3,1505.2,341.5,-0.7,1.8,2471.502,13.29,0.034,320.8
2023-10-31T03:31:03,42.805,6.029,-0.006,0.016,-0.033,103.0,104.0,103.0,13.4,1505.2,357.0,-0.7,1.8,2471.49,13.29,0.017,339.4
2023-10-31T03:34:03,42.805,6.029,-0.016,0.0,-0.029,105.0,105.0,103.0,13.4,1505.2,337.8,-0.8,1.8,2471.472,13.29,0.016,270.0
2023-10-31T03:37:03,42.805,6.029,-0.002,0.025,-0.01,104.0,103.0,102.0,13.4,1505.2,341.8,-0.8,1.8,2471.488,13.29,0.025,355.4
2023-10-31T03:40:03,42.805,6.029,-0.002,0.025,-0.047,102.0,104.0,102.0,13.3,1505.2,0.0,-0.7,1.9,2471.503,13.29,0.025,355.4
2023-10-31T03:43:03,42.805,6.029,-0.014,0.022,-0.062,105.0,104.0,102.0,13.4,1505.2,344.1,-0.8,1.8,2471.485,13.29,0.026,327.5
2023-10-31T03:46:03,42.805,6.029,0.012,0.008,0.01,104.0,104.0,103.0,13.4,1505.2,346.1,-0.8,1.8,2471.491,13.29,0.014,56.3
2023-10-31T03:49:03,42.805,6.029,0.004,0.014,0.013,104.0,103.0,102.0,13.4,1505.2,358.1,-0.8,1.8,2471.497,13.29,0.014,15.9
2023-10-31T03:52:03,42.805,6.029,-0.014,0.006,-0.023,104.0,104.0,102.0,13.3,1505.2,351.1,-0.8,1.8,2471.503,13.29,0.015,293.2
2023-10-31T03:55:03,42.805,6.029,-0.025,0.006,-0.023,104.0,105.0,102.0,13.4,1505.2,341.8,-0.8,1.8,2471.51,13.29,0.025,283.5
2023-10-31T03:58:03,42.805,6.029,-0.012,0.02,-0.012,105.0,105.0,101.0,13.3,1505.2,354.8,-0.8,1.8,2471.459,13.29,0.023,329.0
2023-10-31T04:04:03,42.805,6.029,-0.007,0.015,-0.02,104.0,104.0,103.0,13.4,1505.2,333.0,-0.7,1.8,2471.537,13.29,0.016,335.0
2023-10-31T04:07:03,42.805,6.029,-0.023,0.0,-0.02,104.0,105.0,104.0,13.4,1505.2,338.0,-0.7,1.8,2471.538,13.29,0.023,270.0
2023-10-31T04:10:03,42.805,6.029,-0.014,0.022,-0.012,103.0,102.0,103.0,13.4,1505.2,352.7,-0.7,1.8,2471.573,13.29,0.026,327.5
2023-10-31T04:13:03,42.805,6.029,-0.017,0.006,-0.02,105.0,103.0,102.0,13.3,1505.2,344.8,-0.8,1.8,2471.541,13.29,0.018,289.4
2023-10-31T04:16:03,42.805,6.029,-0.022,0.022,-0.036,104.0,104.0,103.0,13.4,1505.2,345.1,-0.8,1.8,2471.559,13.29,0.031,315.0
2023-10-31T04:19:03,42.805,6.029,-0.011,0.012,-0.033,103.0,104.0,102.0,13.4,1505.2,348.1,-0.8,1.8,2471.566,13.29,0.016,317.5
2023-10-31T04:22:03,42.805,6.029,0.001,0.0,-0.014,104.0,102.0,103.0,13.3,1505.2,352.1,-0.8,1.8,2471.519,13.29,0.001,90.0
2023-10-31T04:25:03,42.805,6.029,-0.028,0.0,-0.025,103.0,104.0,102.0,13.4,1505.2,349.8,-0.8,1.8,2471.561,13.29,0.028,270.0
2023-10-31T04:28:03,42.805,6.029,-0.013,0.022,-0.007,103.0,104.0,103.0,13.3,1505.2,350.3,-0.7,1.8,2471.551,13.29,0.025,329.4
2023-10-31T04:31:03,42.805,6.029,0.001,0.008,-0.015,103.0,104.0,102.0,13.4,1505.2,350.0,-0.8,1.8,2471.518,13.29,0.008,7.1
2023-10-31T04:34:03,42.805,6.029,-0.022,0.032,-0.006,104.0,104.0,103.0,13.4,1505.2,338.2,-0.7,1.8,2471.563,13.29,0.038,325.5
2023-10-31T04:37:03,42.805,6.029,-0.011,0.025,-0.022,104.0,104.0,103.0,13.4,1505.2,338.3,-0.8,1.8,2471.564,13.29,0.027,336.3
2023-10-31T04:40:03,42.805,6.029,-0.012,0.029,-0.014,104.0,104.0,103.0,13.4,1505.2,329.9,-0.8,1.8,2471.538,13.29,0.031,337.5
2023-10-31T04:43:03,42.805,6.029,0.005,-0.003,-0.024,104.0,105.0,102.0,13.4,1505.2,347.1,-0.7,1.8,2471.552,13.29,0.005,121.0
2023-10-31T04:46:03,42.805,6.029,0.005,0.003,-0.054,104.0,105.0,101.0,13.4,1505.2,339.0,-0.8,1.8,2471.545,13.29,0.005,59.0
2023-10-31T04:49:03,42.805,6.029,-0.022,0.014,-0.028,106.0,103.0,102.0,13.3,1505.2,331.9,-0.8,1.8,2471.536,13.29,0.026,302.5
2023-10-31T04:52:03,42.805,6.029,-0.013,0.035,-0.05,105.0,104.0,102.0,13.4,1505.2,358.0,-0.8,1.8,2471.543,13.29,0.037,339.6
2023-10-31T04:55:03,42.805,6.029,-0.006,0.009,-0.022,103.0,104.0,104.0,13.4,1505.2,340.7,-0.8,1.8,2471.579,13.29,0.01,326.3
2023-10-31T04:58:03,42.805,6.029,0.005,0.02,0.0,104.0,103.0,102.0,13.4,1505.2,335.9,-0.8,1.8,2471.537,13.29,0.02,14.0
2023-10-31T05:04:03,42.805,6.029,0.047,0.0,0.007,105.0,104.0,102.0,13.4,1505.2,359.0,-0.7,1.8,2471.592,13.29,0.047,90.0
2023-10-31T05:07:03,42.805,6.029,0.005,0.009,0.016,103.0,104.0,103.0,13.3,1505.2,345.1,-0.7,1.8,2471.615,13.29,0.01,29.1
2023-10-31T05:10:03,42.805,6.029,-0.022,0.016,-0.02,104.0,104.0,102.0,13.4,1505.2,354.8,-0.8,1.8,2471.602,13.29,0.027,306.0
2023-10-31T05:13:03,42.805,6.029,-0.02,0.024,-0.053,104.0,104.0,103.0,13.4,1505.2,355.9,-0.7,1.8,2471.596,13.29,0.031,320.2
2023-10-31T05:16:03,42.805,6.029,-0.006,0.035,-0.008,105.0,104.0,102.0,13.4,1505.2,345.9,-0.8,1.8,2471.603,13.29,0.035,350.3
2023-10-31T05:19:03,42.805,6.029,0.007,0.032,-0.013,105.0,103.0,103.0,13.3,1505.2,338.5,-0.8,1.8,2471.615,13.29,0.032,12.3
2023-10-31T05:22:03,42.805,6.029,-0.006,0.022,-0.004,103.0,104.0,102.0,13.4,1505.2,345.5,-0.8,1.8,2471.607,13.29,0.022,344.7
2023-10-31T05:25:03,42.805,6.029,-0.023,0.008,-0.046,105.0,103.0,103.0,13.4,1505.2,353.9,-0.7,1.8,2471.607,13.29,0.024,289.2
2023-10-31T05:28:03,42.805,6.029,0.003,0.02,-0.003,104.0,103.0,103.0,13.3,1505.2,342.6,-0.8,1.8,2471.595,13.29,0.02,8.5
2023-10-31T05:31:03,42.805,6.029,-0.006,0.018,-0.015,104.0,104.0,102.0,13.4,1505.2,333.8,-0.8,1.8,2471.596,13.29,0.018,341.6
2023-10-31T05:34:03,42.805,6.029,-0.001,0.017,-0.014,106.0,104.0,102.0,13.3,1505.2,358.1,-0.8,1.8,2471.629,13.29,0.017,356.6
2023-10-31T05:37:03,42.805,6.029,-0.008,0.006,-0.014,104.0,104.0,102.0,13.4,1505.2,341.8,-0.8,1.8,2471.607,13.29,0.01,306.9
2023-10-31T05:40:03,42.805,6.029,-0.017,0.02,-0.017,104.0,105.0,102.0,13.4,1505.2,350.8,-0.8,1.8,2471.625,13.29,0.026,319.6
2023-10-31T05:43:03,42.805,6.029,-0.009,0.035,-0.034,104.0,104.0,102.0,13.3,1505.2,347.1,-0.8,1.8,2471.587,13.29,0.036,345.6
2023-10-31T05:46:03,42.805,6.029,-0.01,0.019,-0.042,104.0,104.0,101.0,13.3,1505.2,353.2,-0.7,1.8,2471.554,13.29,0.021,332.2
2023-10-31T05:49:03,42.805,6.029,-0.007,0.011,-0.013,105.0,105.0,102.0,13.4,1505.2,342.3,-0.8,1.8,2471.597,13.29,0.013,327.5
2023-10-31T05:52:03,42.805,6.029,-0.011,0.014,-0.043,105.0,104.0,102.0,13.4,1505.2,351.1,-0.7,1.8,2471.624,13.29,0.017,321.8
2023-10-31T05:55:03,42.805,6.029,0.006,0.002,0.0,105.0,104.0,104.0,13.4,1505.2,345.4,-0.8,1.8,2471.63,13.29,0.006,71.6
2023-10-31T05:58:03,42.805,6.029,0.004,0.027,-0.003,105.0,104.0,103.0,13.3,1505.2,340.2,-0.7,1.8,2471.604,13.29,0.027,8.4
2023-10-31T06:04:03,42.805,6.029,-0.031,0.032,-0.01,104.0,104.0,103.0,13.4,1505.2,358.0,-0.8,1.8,2471.685,13.29,0.044,315.9
2023-10-31T06:07:03,42.805,6.029,-0.008,0.026,-0.04,105.0,105.0,104.0,13.3,1505.2,357.1,-0.7,1.8,2471.671,13.29,0.027,342.9
2023-10-31T06:10:03,42.805,6.029,0.002,0.012,-0.013,106.0,104.0,103.0,13.3,1505.2,348.1,-0.8,1.8,2471.639,13.29,0.012,9.5
2023-10-31T06:13:03,42.805,6.029,-0.035,0.008,-0.025,106.0,104.0,102.0,13.4,1505.2,336.5,-0.8,1.8,2471.667,13.29,0.035,282.9
2023-10-31T06:16:03,42.805,6.029,-0.021,0.028,-0.04,104.0,104.0,103.0,13.4,1505.2,335.9,-0.8,1.8,2471.669,13.29,0.035,323.1
2023-10-31T06:19:03,42.805,6.029,-0.001,0.02,-0.031,105.0,104.0,102.0,13.4,1505.2,346.1,-0.7,1.8,2471.648,13.29,0.02,357.1
2023-10-31T06:22:03,42.805,6.029,0.001,0.007,0.006,104.0,104.0,103.0,13.4,1505.2,353.1,-0.8,1.8,2471.663,13.29,0.007,8.1
2023-10-31T06:25:03,42.805,6.029,-0.011,0.025,-0.028,105.0,104.0,103.0,13.4,1505.2,333.0,-0.8,1.8,2471.671,13.29,0.027,336.3
2023-10-31T06:28:03,42.805,6.029,-0.012,0.0,-0.02,104.0,105.0,102.0,13.3,1505.2,337.1,-0.8,1.8,2471.672,13.29,0.012,270.0
2023-10-31T06:31:03,42.805,6.029,0.006,0.008,-0.017,106.0,104.0,102.0,13.4,1505.2,347.3,-0.8,1.8,2471.677,13.29,0.01,36.9
2023-10-31T06:34:03,42.805,6.029,0.026,0.0,-0.013,104.0,103.0,102.0,13.4,1505.2,356.9,-0.8,1.8,2471.687,13.29,0.026,90.0
2023-10-31T06:37:03,42.805,6.029,-0.011,0.028,-0.016,104.0,104.0,102.0,13.4,1505.2,347.3,-0.8,1.8,2471.629,13.29,0.03,338.6
2023-10-31T06:40:03,42.805,6.029,0.001,0.024,-0.011,103.0,104.0,102.0,13.4,1505.2,334.6,-0.8,1.8,2471.67,13.29,0.024,2.4
2023-10-31T06:43:03,42.805,6.029,-0.005,0.004,-0.013,105.0,104.0,102.0,13.4,1505.2,338.7,-0.8,1.8,2471.652,13.29,0.006,308.7
2023-10-31T06:46:03,42.805,6.029,0.007,0.025,-0.007,107.0,103.0,103.0,13.3,1505.2,334.5,-0.8,1.8,2471.658,13.29,0.025,15.6
2023-10-31T06:49:03,42.805,6.029,0.008,0.015,-0.003,102.0,104.0,101.0,13.4,1505.2,342.8,-0.8,1.8,2471.671,13.29,0.017,28.1
2023-10-31T06:52:03,42.805,6.029,0.001,0.02,0.002,103.0,104.0,103.0,13.3,1505.2,334.1,-0.8,1.8,2471.667,13.29,0.02,2.9
2023-10-31T06:55:03,42.805,6.029,0.009,0.022,-0.009,104.0,103.0,102.0,13.4,1505.2,344.4,-0.8,1.8,2471.659,13.29,0.023,22.2
2023-10-31T06:58:03,42.805,6.029,0.01,0.005,-0.015,104.0,104.0,103.0,13.3,1505.2,342.1,-0.8,1.8,2471.666,13.29,0.011,63.4
2023-10-31T07:04:03,42.805,6.029,-0.009,0.03,0.007,107.0,104.0,102.0,13.4,1505.2,333.8,-0.7,1.8,2471.704,13.29,0.031,343.3
2023-10-31T07:07:03,42.805,6.029,0.005,0.015,-0.04,104.0,104.0,104.0,13.3,1505.2,359.0,-0.7,1.8,2471.71,13.29,0.015,18.4
2023-10-31T07:10:03,42.805,6.029,0.011,0.0,0.0,104.0,103.0,102.0,13.4,1505.2,339.6,-0.8,1.8,2471.766,13.29,0.011,90.0
2023-10-31T07:13:03,42.805,6.029,0.007,0.033,0.007,104.0,103.0,102.0,13.4,1505.2,348.6,-0.7,1.8,2471.728,13.29,0.033,12.0
2023-10-31T07:16:03,42.805,6.029,-0.009,0.021,-0.029,101.0,104.0,102.0,13.3,1505.2,337.5,-0.8,1.8,2471.721,13.29,0.022,336.8
2023-10-31T07:19:03,42.805,6.029,0.028,0.009,-0.024,103.0,103.0,101.0,13.3,1505.2,335.9,-0.8,1.8,2471.688,13.29,0.029,72.2
2023-10-31T07:22:03,42.805,6.029,-0.008,0.041,0.004,103.0,102.0,101.0,13.4,1505.2,331.5,-0.8,1.8,2471.688,13.29,0.041,349.0
2023-10-31T07:25:03,42.805,6.029,0.02,0.012,-0.027,107.0,102.0,101.0,13.4,1505.2,353.8,-0.8,1.8,2471.714,13.29,0.023,59.0
2023-10-31T07:28:03,42.805,6.029,0.018,0.02,-0.001,103.0,102.0,101.0,13.4,1505.2,342.3,-0.8,1.8,2471.671,13.29,0.026,42.0
2023-10-31T07:31:03,42.805,6.029,0.012,0.028,-0.012,102.0,102.0,100.0,13.4,1505.2,355.1,-0.8,1.8,2471.702,13.29,0.03,23.2
2023-10-31T07:34:03,42.805,6.029,0.0,0.009,-0.022,103.0,103.0,101.0,13.4,1505.2,351.8,-0.8,1.8,2471.693,13.29,0.009,0.0
2023-10-31T07:37:03,42.805,6.029,-0.011,0.011,-0.035,102.0,102.0,101.0,13.3,1505.2,335.9,-0.8,1.8,2471.692,13.29,0.015,315.0
2023-10-31T07:40:03,42.805,6.029,-0.008,0.005,-0.034,102.0,102.0,101.0,13.4,1505.2,334.1,-0.8,1.8,2471.704,13.29,0.009,302.0
2023-10-31T07:43:03,42.805,6.029,0.027,0.006,-0.003,102.0,101.0,101.0,13.4,1505.2,351.3,-0.8,1.8,2471.684,13.29,0.027,77.5
2023-10-31T07:46:03,42.805,6.029,0.029,-0.003,-0.021,103.0,102.0,101.0,13.4,1505.2,340.4,-0.8,1.8,2471.667,13.29,0.029,95.9
2023-10-31T07:49:03,42.805,6.029,0.011,0.04,-0.011,104.0,103.0,100.0,13.3,1505.2,341.8,-0.8,1.8,2471.712,13.29,0.041,15.4
2023-10-31T07:52:03,42.805,6.029,0.002,0.033,-0.003,102.0,101.0,100.0,13.4,1505.2,349.0,-0.8,1.8,2471.696,13.29,0.033,3.5
2023-10-31T07:55:03,42.805,6.029,-0.003,0.03,-0.003,103.0,101.0,100.0,13.4,1505.2,351.1,-0.8,1.8,2471.716,13.29,0.03,354.3
2023-10-31T07:58:03,42.805,6.029,-0.005,0.018,0.0,100.0,102.0,101.0,13.4,1505.2,341.2,-0.7,1.8,2471.718,13.29,0.018,344.5
2023-10-31T08:04:03,42.805,6.029,0.025,0.019,0.011,103.0,102.0,100.0,13.4,1505.2,338.3,-0.8,1.8,2471.755,13.29,0.031,52.8
2023-10-31T08:07:03,42.805,6.029,0.015,0.028,-0.009,102.0,101.0,100.0,13.3,1505.2,331.9,-0.8,1.8,2471.75,13.29,0.031,28.2
2023-10-31T08:10:03,42.805,6.029,0.0,0.017,-0.001,102.0,101.0,101.0,13.4,1505.2,351.9,-0.8,1.9,2471.739,13.29,0.017,0.0
2023-10-31T08:13:03,42.805,6.029,0.0,0.041,0.012,101.0,102.0,100.0,13.3,1505.2,351.8,-0.8,1.8,2471.754,13.29,0.041,0.0
2023-10-31T08:16:03,42.805,6.029,-0.007,-0.004,-0.042,104.0,101.0,101.0,13.3,1505.2,356.9,-0.8,1.8,2471.761,13.29,0.008,240.3
2023-10-31T08:19:03,42.805,6.029,-0.014,0.022,-0.025,101.0,102.0,100.0,13.4,1505.2,342.1,-0.8,1.8,2471.729,13.29,0.026,327.5
2023-10-31T08:22:03,42.805,6.029,0.005,0.013,-0.022,100.0,103.0,100.0,13.4,1505.2,353.4,-0.8,1.8,2471.744,13.29,0.013,21.0
2023-10-31T08:25:03,42.805,6.029,0.005,0.019,-0.016,102.0,101.0,100.0,13.4,1505.2,351.0,-0.8,1.8,2471.722,13.29,0.019,14.7
2023-10-31T08:28:03,42.805,6.029,-0.01,0.031,0.009,102.0,101.0,101.0,13.3,1505.2,344.2,-0.7,1.8,2471.75,13.29,0.032,342.1
2023-10-31T08:31:03,42.805,6.029,-0.015,0.03,-0.013,99.0,101.0,102.0,13.4,1505.2,333.8,-0.7,1.8,2471.706,13.29,0.033,333.4
2023-10-31T08:34:03,42.805,6.029,0.006,0.024,0.0,100.0,102.0,101.0,13.4,1505.2,335.5,-0.8,1.8,2471.748,13.29,0.024,14.0
2023-10-31T08:37:03,42.805,6.029,0.013,0.021,0.004,103.0,101.0,101.0,13.3,1505.2,332.6,-0.8,1.8,2471.734,13.29,0.024,31.8
2023-10-31T08:40:03,42.805,6.029,-0.013,0.023,-0.005,101.0,101.0,101.0,13.4,1505.2,338.0,-0.8,1.8,2471.731,13.29,0.026,330.5
2023-10-31T08:43:03,42.805,6.029,-0.001,0.021,-0.05,101.0,102.0,101.0,13.4,1505.2,342.6,-0.8,1.8,2471.698,13.29,0.021,357.3
2023-10-31T08:46:03,42.805,6.029,0.005,0.029,0.017,102.0,101.0,102.0,13.3,1505.2,346.9,-0.7,1.8,2471.726,13.29,0.029,9.8
2023-10-31T08:49:03,42.805,6.029,0.017,0.018,-0.025,101.0,102.0,101.0,13.4,1505.2,358.2,-0.8,1.8,2471.702,13.29,0.024,43.4
2023-10-31T08:52:03,42.805,6.029,0.003,0.01,-0.025,102.0,102.0,100.0,13.3,1505.2,349.7,-0.8,1.8,2471.733,13.29,0.01,16.7
2023-10-31T08:55:03,42.805,6.029,-0.016,0.047,-0.014,101.0,102.0,101.0,13.4,1505.2,336.8,-0.8,1.8,2471.713,13.29,0.049,341.2
2023-10-31T08:58:03,42.805,6.029,0.007,0.003,-0.01,101.0,102.0,101.0,13.4,1505.2,357.2,-0.7,1.8,2471.732,13.29,0.007,66.8
2023-10-31T09:04:03,42.805,6.029,-0.004,0.028,-0.039,101.0,101.0,101.0,13.3,1505.2,352.7,-0.8,1.8,2471.756,13.29,0.028,351.9
2023-10-31T09:07:03,42.805,6.029,0.007,0.032,-0.019,102.0,102.0,100.0,13.4,1505.2,342.1,-0.7,1.8,2471.774,13.29,0.032,12.3
2023-10-31T09:10:03,42.805,6.029,0.016,0.026,-0.012,102.0,102.0,99.0,13.4,1505.2,350.6,-0.8,1.8,2471.734,13.29,0.03,31.6
2023-10-31T09:13:03,42.805,6.029,0.01,0.026,-0.006,101.0,102.0,101.0,13.3,1505.2,348.6,-0.8,1.8,2471.713,13.29,0.027,21.0
2023-10-31T09:16:03,42.805,6.029,-0.019,0.037,-0.03,101.0,102.0,100.0,13.4,1505.2,342.4,-0.8,1.8,2471.7,13.29,0.041,332.8
2023-10-31T09:19:03,42.805,6.029,0.0,0.059,0.016,101.0,101.0,102.0,13.3,1505.2,351.0,-0.7,1.8,2471.721,13.29,0.058,0.0
2023-10-31T09:22:03,42.805,6.029,0.022,0.028,0.009,102.0,102.0,100.0,13.4,1505.2,337.1,-0.8,1.8,2471.71,13.29,0.035,38.2
2023-10-31T09:25:03,42.805,6.029,-0.007,0.026,-0.012,100.0,101.0,101.0,13.3,1505.2,331.9,-0.8,1.8,2471.67,13.29,0.026,344.9
2023-10-31T09:28:03,42.805,6.029,-0.002,0.011,-0.01,103.0,102.0,101.0,13.4,1505.2,343.5,-0.7,1.8,2471.731,13.29,0.011,349.7
2023-10-31T09:31:03,42.805,6.029,-0.009,0.021,-0.024,102.0,101.0,101.0,13.3,1505.2,335.1,-0.8,1.9,2471.712,13.29,0.022,336.8
2023-10-31T09:34:03,42.805,6.029,0.007,0.031,-0.017,101.0,102.0,101.0,13.4,1505.2,331.5,-0.8,1.8,2471.702,13.29,0.031,12.7
2023-10-31T09:37:03,42.805,6.029,-0.006,0.022,-0.016,102.0,101.0,101.0,13.4,1505.2,350.5,-0.7,1.7,2471.684,13.29,0.022,344.7
2023-10-31T09:40:03,42.805,6.029,0.007,0.029,-0.003,102.0,101.0,100.0,13.3,1505.2,348.6,-0.8,1.8,2471.7,13.29,0.029,13.6
2023-10-31T09:43:03,42.805,6.029,0.008,0.015,-0.008,100.0,101.0,101.0,13.4,1505.2,353.0,-0.8,1.8,2471.682,13.29,0.017,28.1
2023-10-31T09:46:03,42.805,6.029,-0.008,0.04,-0.007,102.0,100.0,101.0,13.4,1505.2,330.7,-0.8,1.8,2471.711,13.29,0.04,348.7
2023-10-31T09:49:03,42.805,6.029,-0.012,0.036,-0.018,103.0,102.0,99.0,13.4,1505.2,347.6,-0.8,1.8,2471.703,13.29,0.037,341.6
2023-10-31T09:52:03,42.805,6.029,0.011,0.041,0.0,101.0,102.0,101.0,13.4,1505.2,359.0,-0.8,1.8,2471.698,13.29,0.042,15.0
2023-10-31T09:55:03,42.805,6.029,-0.015,0.021,-0.019,100.0,101.0,100.0,13.4,1505.2,344.6,-0.8,1.8,2471.745,13.29,0.025,324.5
2023-10-31T09:58:03,42.805,6.029,-0.033,0.007,-0.027,102.0,102.0,100.0,13.4,1505.2,335.4,-0.7,1.8,2471.696,13.29,0.033,282.0